GW4223 Weather Reports


Display with metric or nautical units.
time (UTC)temp
F
wind
direction
speed
MPH
gust
MPH
rain 1hr
in
rain 24hr
in
rain mn
in
humidity
%
barometer
mb
20260504173115 74 59 5.0 8.0 0.00 0.00 0.00 34 1013.3
20260504172611 74 129 4.0 4.0 0.00 0.00 0.00 35 1013.5
20260504172107 73 21 1.0 1.0 0.00 0.00 0.00 36 1013.6
20260504171603 74 67 0.0 1.0 0.00 0.00 0.00 39 1013.6
20260504171101 73 204 4.0 7.0 0.00 0.00 0.00 33 1013.6
20260504170556 74 355 1.0 2.0 0.00 0.00 0.00 34 1013.6
20260504150940 70 223 4.0 6.0 0.00 0.00 0.00 37 1015.1
20260504150437 69 315 1.0 1.0 0.00 0.00 0.00 46 1014.9
20260504140904 66 23 1.0 1.0 0.00 0.00 0.00 46 1015.3
20260504140359 66 38 0.0 0.0 0.00 0.00 0.00 50 1015.3
20260504130325 60 352 1.0 1.0 0.00 0.00 0.00 52 1015.5
20260504120248 55 146 2.0 4.0 0.00 0.00 0.00 59 1015.9
20260504110715 51 64 0.0 0.0 0.00 0.00 0.00 69 1016.1
20260504110212 51 23 0.0 0.0 0.00 0.00 0.00 69 1016.1
20260504100136 50 4 0.0 0.0 0.00 0.00 0.00 70 1016.2
20260504081529 49 21 0.0 0.0 0.00 0.00 0.00 69 1016.5
20260504081025 48 354 0.0 0.0 0.00 0.00 0.00 70 1016.5
20260504080521 48 21 0.0 0.0 0.00 0.00 0.00 69 1016.4
20260504050334 46 56 0.0 0.0 0.00 0.00 0.00 67 1016.6
20260504045831 45 56 0.0 0.0 0.00 0.00 0.00 68 1016.7
20260504045326 45 57 0.0 0.0 0.00 0.00 0.00 70 1016.7
20260504044823 45 60 0.0 1.0 0.00 0.00 0.00 71 1016.7
20260504044320 45 54 0.0 0.0 0.00 0.00 0.00 72 1016.8
20260504043817 45 63 0.0 1.0 0.00 0.00 0.00 72 1016.7
20260504043314 45 76 0.0 1.0 0.00 0.00 0.00 73 1016.7
20260504042812 44 83 1.0 1.0 0.00 0.00 0.00 74 1016.6
20260504042308 44 75 0.0 0.0 0.00 0.00 0.00 76 1016.6
20260504041805 44 90 0.0 0.0 0.00 0.00 0.00 76 1016.6
20260504041300 44 62 0.0 0.0 0.00 0.00 0.00 77 1016.6
20260504040757 44 71 0.0 0.0 0.00 0.00 0.00 80 1016.6
20260504040255 44 70 0.0 0.0 0.00 0.00 0.00 76 1016.7
20260504035750 44 36 0.0 0.0 0.00 0.00 0.00 79 1016.5
20260504035247 44 6 0.0 0.0 0.00 0.00 0.00 79 1016.4
20260504034745 44 50 0.0 0.0 0.00 0.00 0.00 79 1016.5
20260504034242 44 44 0.0 0.0 0.00 0.00 0.00 80 1016.4
20260504033740 44 49 0.0 0.0 0.00 0.00 0.00 81 1016.5
20260504033237 44 56 0.0 0.0 0.00 0.00 0.00 76 1016.3
20260504032734 45 50 0.0 0.0 0.00 0.00 0.00 75 1016.2
20260504032231 45 45 0.0 0.0 0.00 0.00 0.00 73 1016.3
20260504031727 45 47 0.0 0.0 0.00 0.00 0.00 73 1016.1
20260504031225 45 62 0.0 0.0 0.00 0.00 0.00 74 1016.1
20260504030721 45 48 0.0 0.0 0.00 0.00 0.00 75 1016.2
20260504030218 45 45 0.0 0.0 0.00 0.00 0.00 76 1016.1
20260504025715 45 70 0.0 1.0 0.00 0.00 0.00 77 1016.2
20260504025211 46 73 0.0 0.0 0.00 0.00 0.00 77 1016.2
20260504024709 45 47 0.0 0.0 0.00 0.00 0.00 71 1016.2
20260504024205 45 55 0.0 0.0 0.00 0.00 0.00 71 1016.2
20260504023702 46 42 0.0 0.0 0.00 0.00 0.00 71 1016.1
20260504023158 46 48 0.0 0.0 0.00 0.00 0.00 72 1016.2
20260504022654 46 48 0.0 0.0 0.00 0.00 0.00 74 1016.3
20260504022150 46 49 0.0 0.0 0.00 0.00 0.00 72 1016.3
20260504021648 47 49 0.0 0.0 0.00 0.00 0.00 74 1016.3
20260504021145 47 53 0.0 0.0 0.00 0.00 0.00 67 1016.1
20260504020642 47 59 0.0 0.0 0.00 0.00 0.00 68 1016.2
20260504020137 47 55 0.0 0.0 0.00 0.00 0.00 70 1016.0
20260504015634 47 50 0.0 0.0 0.00 0.00 0.00 72 1016.1
20260504015131 48 49 0.0 0.0 0.00 0.00 0.00 72 1015.9
20260504014626 48 57 0.0 0.0 0.00 0.00 0.00 70 1016.1
20260504014124 48 60 0.0 0.0 0.00 0.00 0.00 68 1016.1
20260504013621 48 49 0.0 0.0 0.00 0.00 0.00 68 1016.1
20260504013118 49 53 0.0 0.0 0.00 0.00 0.00 64 1016.0
20260504012615 49 51 0.0 0.0 0.00 0.00 0.00 64 1016.0
20260504012113 49 50 0.0 0.0 0.00 0.00 0.00 61 1016.0
20260504011610 50 54 0.0 1.0 0.00 0.00 0.00 65 1015.7
20260504011106 50 50 0.0 0.0 0.00 0.00 0.00 57 1015.8
20260504010602 50 50 0.0 0.0 0.00 0.00 0.00 58 1015.9
20260504010058 50 50 0.0 0.0 0.00 0.00 0.00 56 1015.8
20260504005555 51 47 0.0 0.0 0.00 0.00 0.00 57 1015.9
20260504005052 51 45 0.0 0.0 0.00 0.00 0.00 56 1015.8
20260504004550 52 50 0.0 0.0 0.00 0.00 0.00 61 1015.7
20260504004047 52 68 0.0 1.0 0.00 0.00 0.00 55 1015.8
20260504003543 53 56 0.0 0.0 0.00 0.00 0.00 51 1015.5
20260504003040 53 46 0.0 0.0 0.00 0.00 0.00 46 1015.5
20260504002537 54 42 0.0 0.0 0.00 0.00 0.00 46 1015.4
20260504002034 54 56 0.0 0.0 0.00 0.00 0.00 45 1015.5
20260504001532 55 62 0.0 0.0 0.00 0.00 0.00 44 1015.4
20260504001027 55 85 0.0 1.0 0.00 0.00 0.00 43 1015.4
20260504000525 56 85 0.0 1.0 0.00 0.00 0.00 42 1015.3
20260504000023 56 71 0.0 1.0 0.00 0.00 0.00 43 1015.3
20260503235521 57 76 0.0 1.0 0.00 0.00 0.00 40 1015.3
20260503235017 57 51 0.0 0.0 0.00 0.00 0.00 40 1015.1
20260503234515 58 76 0.0 1.0 0.00 0.00 0.00 40 1015.2
20260503234013 58 28 1.0 1.0 0.00 0.00 0.00 36 1015.1
20260503233509 58 41 0.0 0.0 0.00 0.00 0.00 37 1015.0
20260503233005 59 36 0.0 0.0 0.00 0.00 0.00 36 1015.0
20260503232502 59 102 0.0 1.0 0.00 0.00 0.00 37 1014.8
20260503232000 59 47 0.0 0.0 0.00 0.00 0.00 38 1015.0
20260503231457 59 151 1.0 1.0 0.00 0.00 0.00 37 1014.9
20260503230954 60 51 1.0 1.0 0.00 0.00 0.00 34 1014.9
20260503230450 59 83 0.0 1.0 0.00 0.00 0.00 39 1014.8
20260503225948 60 56 0.0 0.0 0.00 0.00 0.00 37 1014.9
20260503225444 60 29 0.0 0.0 0.00 0.00 0.00 37 1014.9
20260503224935 60 39 0.0 1.0 0.00 0.00 0.00 36 1014.9
20260503224432 60 95 1.0 1.0 0.00 0.00 0.00 38 1015.1
20260503223930 60 26 1.0 1.0 0.00 0.00 0.00 40 1015.0
20260503223427 60 73 2.0 2.0 0.00 0.00 0.00 36 1014.9
20260503222923 60 316 1.0 1.0 0.00 0.00 0.00 37 1014.8
20260503222422 61 349 1.0 1.0 0.00 0.00 0.00 34 1014.8
20260503221920 61 4 0.0 0.0 0.00 0.00 0.00 37 1015.0
20260503221418 61 5 1.0 2.0 0.00 0.00 0.00 38 1014.9
20260503220914 61 40 0.0 0.0 0.00 0.00 0.00 36 1015.1
20260503220410 61 195 2.0 2.0 0.00 0.00 0.00 37 1014.9
20260503215908 61 17 2.0 2.0 0.00 0.00 0.00 36 1015.0
20260503215404 61 32 1.0 1.0 0.00 0.00 0.00 38 1014.9
20260503214902 60 334 1.0 1.0 0.00 0.00 0.00 40 1015.0
20260503214359 60 2 1.0 1.0 0.00 0.00 0.00 36 1015.0
20260503213856 61 359 4.0 6.0 0.00 0.00 0.00 34 1014.9
20260503213354 61 57 0.0 1.0 0.00 0.00 0.00 36 1014.9
20260503212850 61 12 1.0 1.0 0.00 0.00 0.00 36 1014.9
20260503212349 61 22 0.0 0.0 0.00 0.00 0.00 39 1015.0
20260503211845 61 21 2.0 3.0 0.00 0.00 0.00 34 1014.9
20260503211342 61 21 1.0 1.0 0.00 0.00 0.00 36 1014.7
20260503210837 61 10 0.0 1.0 0.00 0.00 0.00 36 1014.9
20260503210335 61 17 1.0 1.0 0.00 0.00 0.00 37 1014.9
20260503205830 62 19 2.0 2.0 0.00 0.00 0.00 33 1014.9
20260503205327 62 34 0.0 1.0 0.00 0.00 0.00 36 1014.8
20260503204823 63 349 1.0 1.0 0.00 0.00 0.00 34 1014.9
20260503204321 62 41 2.0 2.0 0.00 0.00 0.00 38 1014.8
20260503203818 62 321 3.0 4.0 0.00 0.00 0.00 35 1015.1
20260503203315 62 343 1.0 1.0 0.00 0.00 0.00 38 1015.2
20260503202812 62 27 0.0 0.0 0.00 0.00 0.00 35 1015.3
20260503202310 64 42 1.0 1.0 0.00 0.00 0.00 36 1015.3
20260503201808 63 102 1.0 1.0 0.00 0.00 0.00 35 1015.2
20260503201305 64 331 1.0 1.0 0.00 0.00 0.00 36 1015.4
20260503200802 63 44 2.0 3.0 0.00 0.00 0.00 38 1015.3
20260503200258 61 6 1.0 1.0 0.00 0.00 0.00 36 1015.7
20260503195755 62 306 1.0 1.0 0.00 0.00 0.00 40 1015.5
20260503195251 64 343 1.0 1.0 0.00 0.00 0.00 38 1015.7
20260503194749 63 232 1.0 2.0 0.00 0.00 0.00 36 1015.7
20260503194244 61 67 2.0 3.0 0.00 0.00 0.00 36 1015.7
20260503193740 62 1 0.0 1.0 0.00 0.00 0.00 38 1015.6
20260503193237 64 190 1.0 2.0 0.00 0.00 0.00 34 1015.8
20260503192733 63 104 1.0 1.0 0.00 0.00 0.00 36 1015.9
20260503192228 62 348 1.0 1.0 0.00 0.00 0.00 39 1015.9
20260503191725 61 57 2.0 3.0 0.00 0.00 0.00 36 1016.0
20260503191222 61 225 1.0 3.0 0.00 0.00 0.00 39 1016.1
20260503190719 62 8 2.0 3.0 0.00 0.00 0.00 38 1016.0
20260503190216 62 338 4.0 4.0 0.00 0.00 0.00 38 1016.0
20260503185714 63 335 1.0 1.0 0.00 0.00 0.00 38 1016.2
20260503185209 61 226 1.0 3.0 0.00 0.00 0.00 40 1016.2
20260503184703 60 329 6.0 8.0 0.00 0.00 0.00 42 1016.2
20260503184159 61 358 1.0 2.0 0.00 0.00 0.00 41 1016.3
20260503183656 61 4 0.0 1.0 0.00 0.00 0.00 39 1016.5
20260503183153 62 9 2.0 3.0 0.00 0.00 0.00 37 1016.5
20260503182651 62 263 1.0 1.0 0.00 0.00 0.00 39 1016.5
20260503182150 62 10 7.0 10.0 0.00 0.00 0.00 37 1016.5
20260503181646 59 355 1.0 2.0 0.00 0.00 0.00 42 1016.6
20260503181143 59 331 4.0 7.0 0.00 0.00 0.00 41 1016.5
20260503180640 59 5 1.0 1.0 0.00 0.00 0.00 42 1016.5
20260503180138 59 351 2.0 2.0 0.00 0.00 0.00 41 1016.7
20260503175634 56 42 2.0 3.0 0.00 0.00 0.00 45 1016.9
20260503175131 57 323 1.0 2.0 0.00 0.00 0.00 43 1016.7
20260503174628 59 331 5.0 6.0 0.00 0.00 0.00 44 1016.7
20260503174126 59 3 1.0 2.0 0.00 0.00 0.00 42 1016.9
20260503173620 58 345 1.0 2.0 0.00 0.00 0.00 41 1017.1